STARLINK-1395 (45680 NORAD) Tracking and Keplerian Element Data

This shows tracking and keplerian element data for the satellite.

Feedback or suggestion? Click here.




ElementValue
Catalog45680
NameSTARLINK-1395
Epoch Orbit181
Epoch Day191.91670139
Epoch Year2020
RAAN351.9784
Inclination53.0004
Eccentricity0.0001359
Argument of Perigee60.0294
Mean Anonmoly167.8183
Mean Motion15.62711529
Decay Rate0.00056074
L11 45680U 20035Z 20191.91670139 .00056074 00000-0 61498-3 0 9995
L22 45680 53.0004 351.9784 0001359 60.0294 167.8183 15.62711529 1816

Live tracking and technical data element details for STARLINK-1395 (NORAD 45680). STARLINK-1395 can be tracked NOW for your location showing map with azimuth and elevation plus other details from your city location.

Track the satellite on the map from your city or location and see movement details for azimuth, elevation, latitude, longitude, range, height, and movement on the map or in text.







IsCatalogInMostPopularTable: catalog: 45680, numindb: 6
Update: records affected: 1



GetName: 45680 STARLINK-1395

Hit Count: updated at: Fri, 10 Jul 2020 15:25:00 GMT